McCall, ID

6:56 AM MDT on April 29, 2017 (GMT -0600)
McCall

Weather History for KMYL - March, 2012

Change the Weather History Date:

Monday, March 12, 2012

  Actual Average Record
Temperature  
Mean Temperature 31 °F 28 °F  
Max Temperature 42 °F 39 °F 63 °F (1992)
Min Temperature 20 °F 17 °F -16 °F (1950)
Degree Days  
Heating Degree Days 34 37  
Month to date heating degree days 454 461  
Since 1 July heating degree days 6473 7136  
Cooling Degree Days 0 0  
Month to date cooling degree days 0 0  
Year to date cooling degree days 0 0  
Moisture  
Dew Point 27 °F    
Average Humidity 76    
Maximum Humidity 92    
Minimum Humidity 60    
Precipitation  
Precipitation 0.17 in 0.06 in 0.83 in (1964)
Month to date precipitation 0.94 0.66  
Year to date precipitation 6.60 4.13  
Sea Level Pressure  
Sea Level Pressure 29.78 in    
Wind  
Wind Speed 8 mph (SSE)    
Max Wind Speed 24 mph    
Max Gust Speed 32 mph    
Visibility 4 miles    
Events Fog , Snow    
T = Trace of Precipitation, MM = Missing Value Source: NWS Daily Summary

Daily Weather History Graph

Daily Weather History Graph

Search for Another Location

Airport or City:

Trip Planner

Search our weather history database for the weather conditions in past years. The results will help you decide how hot, cold, wet, or windy it might be!

Date:

Astronomy

Mar. 12, 2012 Rise Set
Actual Time 8:01 AM MDT 7:47 PM MDT
Civil Twilight 7:32 AM MDT 8:16 PM MDT
Nautical Twilight 6:58 AM MDT 8:50 PM MDT
Astronomical Twilight 6:23 AM MDT 9:25 PM MDT
Moon 12:30 AM MDT (3/12) 10:10 AM MDT (3/12)
Length of Visible Light 12h 44m
Length of Day
11h 46m
Waning Gibbous, 75% of the Moon is Illuminated
Mar 12
Waning Gibbous
Mar 14
Last Quarter
Mar 22
New
Mar 30
First Quarter
Apr 6
Full

Hourly Weather History & Observations

Time (MDT) Temp. Windchill Dew Point Humidity Pressure Visibility Wind Dir Wind Speed Gust Speed Precip Events Conditions
12:51 AM 28.0 °F 19.3 °F 21.0 °F 75% 29.82 in 10.0 mi SSE 9.2 mph - N/A   Overcast
1:51 AM 21.9 °F 14.5 °F 18.0 °F 85% 29.86 in 10.0 mi South 5.8 mph - N/A   Clear
2:51 AM 21.9 °F - 17.1 °F 82% 29.86 in 10.0 mi Calm Calm - N/A   Partly Cloudy
3:51 AM 24.1 °F 19.7 °F 19.0 °F 81% 29.85 in 10.0 mi Variable 3.5 mph - N/A   Overcast
4:51 AM 26.1 °F 18.4 °F 21.0 °F 81% 29.85 in 10.0 mi South 6.9 mph - N/A   Overcast
5:51 AM 25.0 °F - 21.0 °F 85% 29.86 in 10.0 mi Calm Calm - N/A   Overcast
6:51 AM 25.0 °F - 21.0 °F 85% 29.85 in 10.0 mi Calm Calm - N/A   Overcast
7:51 AM 27.0 °F 18.0 °F 24.1 °F 89% 29.85 in 2.5 mi SSE 9.2 mph - 0.00 in Snow Light Snow
7:58 AM 26.6 °F 19.1 °F 24.8 °F 93% 29.77 in 2.5 mi SSE 6.9 mph - 0.00 in Snow Light Snow
8:08 AM 26.6 °F 20.0 °F 24.8 °F 93% 29.78 in 4.0 mi SE 5.8 mph - 0.00 in Snow Light Snow
8:18 AM 26.6 °F 21.2 °F 24.8 °F 93% 29.78 in 2.5 mi SE 4.6 mph - 0.00 in Snow Light Snow
8:33 AM 26.6 °F 21.2 °F 24.8 °F 93% 29.78 in 1.8 mi SSE 4.6 mph - 0.00 in Snow Light Snow
8:40 AM 26.6 °F - 24.8 °F 93% 29.78 in 2.5 mi Calm Calm - 0.00 in Snow Light Snow
8:51 AM 27.0 °F 21.6 °F 24.1 °F 89% 29.85 in 2.0 mi SE 4.6 mph - 0.00 in Snow Light Snow
9:05 AM 26.6 °F 22.6 °F 24.8 °F 93% 29.77 in 1.5 mi Variable 3.5 mph - 0.01 in Snow Light Snow
9:37 AM 26.6 °F 21.2 °F 24.8 °F 93% 29.78 in 1.2 mi SSE 4.6 mph - 0.02 in Snow Light Snow
9:51 AM 27.0 °F 21.6 °F 25.0 °F 92% 29.85 in 1.2 mi SE 4.6 mph - 0.02 in Snow Light Snow
10:02 AM 28.4 °F 21.2 °F 24.8 °F 86% 29.78 in 3.0 mi SE 6.9 mph - 0.00 in Snow Light Snow
10:16 AM 28.4 °F 21.2 °F 24.8 °F 86% 29.77 in 2.5 mi SE 6.9 mph - 0.00 in Snow Light Snow
10:39 AM 28.4 °F 19.1 °F 26.6 °F 93% 29.78 in 3.0 mi SSE 10.4 mph - 0.01 in Snow Light Snow
10:45 AM 28.4 °F 19.1 °F 26.6 °F 93% 29.78 in 3.0 mi SSE 10.4 mph - 0.01 in Snow Light Snow
10:51 AM 28.9 °F 19.8 °F 26.1 °F 89% 29.86 in 4.0 mi SSE 10.4 mph - 0.01 in Snow Light Snow
11:19 AM 30.2 °F 21.3 °F 26.6 °F 86% 29.77 in 9.0 mi SSE 10.4 mph - 0.00 in   Overcast
11:32 AM 30.2 °F 21.3 °F 28.4 °F 93% 29.77 in 7.0 mi SSE 10.4 mph - 0.00 in Snow Light Snow
11:51 AM 30.9 °F 21.7 °F 28.0 °F 89% 29.84 in 5.0 mi SSE 11.5 mph - 0.00 in Snow Light Snow
12:03 PM 32.0 °F 25.6 °F 28.4 °F 87% 29.77 in 2.5 mi SSE 6.9 mph - 0.00 in Snow Light Snow
12:09 PM 32.0 °F 24.2 °F 28.4 °F 87% 29.77 in 2.0 mi SSE 9.2 mph - 0.00 in Snow Light Snow
12:14 PM 32.0 °F 24.8 °F 28.4 °F 87% 29.77 in 1.8 mi SSE 8.1 mph - 0.00 in Snow Light Snow
12:36 PM 32.0 °F 22.5 °F 30.2 °F 93% 29.77 in 1.0 mi SSE 12.7 mph - 0.00 in Snow Light Snow
12:51 PM 32.0 °F 23.6 °F 30.0 °F 92% 29.84 in 1.0 mi SSE 10.4 mph 19.6 mph 0.01 in Snow Light Snow
1:12 PM 32.0 °F 23.0 °F 30.2 °F 93% 29.76 in 1.2 mi SSE 11.5 mph 18.4 mph 0.01 in Snow Light Snow
1:33 PM 32.0 °F 22.1 °F 30.2 °F 93% 29.76 in 1.0 mi SSE 13.8 mph - 0.01 in Snow Light Snow
1:39 PM 32.0 °F 21.6 °F 30.2 °F 93% 29.76 in 0.8 mi SSE 15.0 mph 20.7 mph 0.01 in Snow Light Snow
1:45 PM 32.0 °F 22.1 °F 30.2 °F 93% 29.76 in 0.8 mi SSE 13.8 mph - 0.01 in Snow Light Snow
1:51 PM 32.0 °F 20.8 °F 30.0 °F 92% 29.86 in 0.8 mi SSE 17.3 mph - 0.02 in Snow Light Snow
2:08 PM 32.0 °F 23.0 °F 30.2 °F 93% 29.76 in 0.8 mi SSE 11.5 mph 20.7 mph 0.00 in Snow Light Snow
2:51 PM 32.0 °F 21.6 °F 30.0 °F 92% 29.84 in 0.8 mi SSE 15.0 mph - 0.02 in Snow Light Snow
3:18 PM 32.0 °F 22.5 °F 30.2 °F 93% 29.75 in 0.5 mi SSE 12.7 mph 21.9 mph 0.02 in Fog , Snow Light Snow
3:51 PM 33.1 °F 23.9 °F 30.0 °F 89% 29.82 in 0.8 mi SSE 12.7 mph - 0.04 in Snow Light Snow
4:29 PM 33.8 °F 25.3 °F 30.2 °F 87% 29.75 in 1.0 mi SSE 11.5 mph - 0.01 in Snow Light Snow
4:40 PM 33.8 °F 25.8 °F 30.2 °F 87% 29.74 in 1.5 mi SSE 10.4 mph 21.9 mph 0.02 in Snow Light Snow
4:49 PM 33.8 °F 25.3 °F 30.2 °F 87% 29.74 in 2.0 mi SE 11.5 mph - 0.02 in Snow Light Snow
4:51 PM 34.0 °F 26.0 °F 30.0 °F 85% 29.81 in 2.0 mi SSE 10.4 mph - 0.02 in Snow Light Snow
4:55 PM 33.8 °F 24.8 °F 30.2 °F 87% 29.74 in 1.8 mi SSE 12.7 mph - 0.00 in Snow Light Snow
5:06 PM 33.8 °F 25.3 °F 30.2 °F 87% 29.74 in 1.5 mi SSE 11.5 mph 19.6 mph 0.00 in Snow Light Snow
5:19 PM 33.8 °F 25.3 °F 30.2 °F 87% 29.73 in 1.0 mi SSE 11.5 mph - 0.00 in Snow Light Snow
5:26 PM 33.8 °F 25.8 °F 30.2 °F 87% 29.73 in 1.5 mi SSE 10.4 mph - 0.00 in Snow Light Snow
5:51 PM 33.1 °F 23.9 °F 30.0 °F 89% 29.80 in 1.2 mi SSE 12.7 mph - 0.01 in Snow Light Snow
6:04 PM 33.8 °F 25.8 °F 30.2 °F 87% 29.72 in 2.5 mi SSE 10.4 mph - N/A Snow Light Snow
6:13 PM 33.8 °F 26.4 °F 30.2 °F 87% 29.72 in 1.2 mi SSE 9.2 mph - N/A Snow Light Snow
7:14 PM 33.8 °F 25.8 °F 30.2 °F 87% 29.70 in 6.0 mi SSE 10.4 mph - 0.01 in Snow Light Snow
7:36 PM 33.8 °F 28.6 °F 30.2 °F 87% 29.69 in 10.0 mi SE 5.8 mph - 0.01 in   Overcast
7:51 PM 34.0 °F 28.8 °F 30.9 °F 89% 29.75 in 10.0 mi SE 5.8 mph - 0.01 in   Overcast
8:51 PM 35.1 °F 30.1 °F 30.0 °F 82% 29.71 in 10.0 mi SSE 5.8 mph - N/A   Overcast
9:51 PM 35.1 °F 31.0 °F 28.9 °F 78% 29.70 in 10.0 mi South 4.6 mph - N/A   Overcast
10:51 PM 34.0 °F 31.0 °F 30.9 °F 89% 29.69 in 10.0 mi Variable 3.5 mph - N/A   Overcast
11:51 PM 41.0 °F 33.1 °F 28.0 °F 60% 29.65 in 10.0 mi SSE 15.0 mph 25.3 mph N/A   Overcast